Starlink 4177

operational
NORAD ID: 53013 Int'l Des: 2022-076 Owner: SPXS Country: US Constellation: starlink
LEOCIRCULAR

Starlink 4177について

説明を読み込み中...

リアルタイム位置

3D地球を読み込み中...

次回通過

高度履歴

Altitude vs Time

uPlot chart will show altitude changes over time

軌道要素

1 53013U 22076AD 26072.00599341 -.00007460 00000-0 -45128-3 0 9999
2 53013 53.2170 69.2330 0000927 75.3987 284.7108 15.08825982203487
Epoch: Mar 13, 2026 • Age: 4 hours

現在のステータス

高度 540.2 km
速度 7.59 km/s
衛星直下点 5.73°N, 12.12°E
打ち上げ日 Jul 7, 2022
運用期間 3.6 years
タイプ internet

技術仕様

分類 Payload
質量 297.00 kg
乾燥質量 275.00 kg
総質量 297.00 kg
長さ 0.20 m
直径 2.80 m
スパン 9.00 m
形状 Box + pan
製造者 SPXS
バスタイプ Starlink
フェーズステータス In Orbit
所有者/国 SPXS/US

大規模コンステレーション

Loading constellations...